This is the latest recevied weather packets stored in our database for station/object N4CJR-13. If no packets are shown the sender has not sent any weather packets the latest 1 day(s).
| Time | Temp. | Humidity | Pressure | Rain* | Wind** | Luminosity | Snow |
|---|---|---|---|---|---|---|---|
| 1836274736 | 25° C | 89% | 1005.3 hPa | - | 0 m/s | - | - |
| 1778036462 | 24.44° C | 47% | 997.8 hPa | - | 0.89 m/s, 247° | - | - |
| 1778035562 | 24.44° C | 47% | 997.9 hPa | - | 0.89 m/s, 180° | - | - |
| 1778034662 | 25° C | 46% | 997.9 hPa | - | 0.89 m/s, 233° | - | - |
| 1778033762 | 25° C | 45% | 998.1 hPa | - | 0.89 m/s, 208° | - | - |
| 1778032863 | 25° C | 44% | 998 hPa | - | 0.89 m/s, 207° | - | - |
| 1778031963 | 25.56° C | 42% | 997.8 hPa | - | 0.89 m/s, 211° | - | - |
| 1778031063 | 25.56° C | 42% | 997.6 hPa | - | 0.89 m/s, 193° | - | - |
| 1778030162 | 25.56° C | 40% | 997.5 hPa | - | 1.34 m/s, 191° | - | - |
| 1778029262 | 26.11° C | 39% | 997.3 hPa | - | 0.89 m/s, 168° | - | - |
| 1778028363 | 26.11° C | 37% | 997.1 hPa | - | 0.89 m/s, 190° | - | - |
| 1778027462 | 26.67° C | 34% | 997 hPa | - | 0.45 m/s, 195° | - | - |
| 1778026562 | 27.22° C | 34% | 996.9 hPa | - | 1.34 m/s, 237° | - | - |
| 1778025662 | 27.22° C | 34% | 996.8 hPa | - | 0.89 m/s, 167° | - | - |
| 1778024762 | 27.78° C | 32% | 996.6 hPa | - | 0.89 m/s, 199° | - | - |
| 1778023862 | 27.78° C | 32% | 996.6 hPa | - | 0.89 m/s, 244° | - | - |
| 1778022962 | 28.33° C | 32% | 996.6 hPa | - | 1.34 m/s, 224° | - | - |
| 1778022062 | 28.89° C | 30% | 996.6 hPa | - | 1.34 m/s, 254° | - | - |
| 1778021163 | 28.89° C | 29% | 996.7 hPa | - | 1.34 m/s, 181° | - | - |
| 1778020263 | 28.89° C | 30% | 996.6 hPa | - | 1.34 m/s, 210° | - | - |
| 1778019363 | 29.44° C | 31% | 996.6 hPa | - | 1.34 m/s, 172° | - | - |
| 1778018463 | 29.44° C | 31% | 996.5 hPa | - | 1.79 m/s, 232° | - | - |
| 1778017562 | 29.44° C | 28% | 996.6 hPa | - | 1.34 m/s, 157° | - | - |
| 1778016662 | 30° C | 28% | 996.5 hPa | - | 1.34 m/s, 212° | - | - |
| 1778015762 | 30° C | 28% | 996.4 hPa | - | 1.79 m/s, 220° | - | - |
* Rain since midnight (hover to see other rain measurements)
** Current wind speed in m/s (hover to see current wind gust speed)